Time,TemperatureF,DewpointF,PressureIn,WindDirection,WindDirectionDegrees,WindSpeedMPH,WindSpeedGustMPH,Humidity,HourlyPrecipIn,Conditions,Clouds,dailyrainin,SoftwareType,DateUTC
2013-07-14 00:02:00,64.0,64.0,30.20,North,5,0.0,4.0,100,0.01,,,0.07,,2013-07-14 04:02:00,
2013-07-14 00:11:00,64.0,64.0,30.20,NW,323,1.0,7.0,100,0.01,,,0.07,,2013-07-14 04:11:00,
2013-07-14 00:22:00,64.0,64.0,30.20,NNE,21,0.0,7.0,100,0.01,,,0.07,,2013-07-14 04:22:00,
2013-07-14 00:32:00,65.0,65.0,30.20,NE,35,1.0,6.0,100,0.01,,,0.07,,2013-07-14 04:32:00,
2013-07-14 00:42:00,65.0,65.0,30.21,NW,326,0.0,7.0,100,0.01,,,0.07,,2013-07-14 04:42:00,
2013-07-14 00:53:00,65.0,65.0,30.21,NNE,29,1.0,7.0,100,0.01,,,0.07,,2013-07-14 04:53:00,
2013-07-14 01:02:00,65.0,65.0,30.21,WNW,300,0.0,4.0,100,0.02,,,0.09,,2013-07-14 05:02:00,
2013-07-14 01:23:00,65.0,65.0,30.21,NNE,22,0.0,9.0,100,0.03,,,0.10,,2013-07-14 05:23:00,
2013-07-14 01:32:00,65.0,65.0,30.21,WNW,282,1.0,4.0,100,0.03,,,0.10,,2013-07-14 05:32:00,
2013-07-14 01:43:00,65.0,65.0,30.21,NNW,331,1.0,6.0,100,0.03,,,0.10,,2013-07-14 05:43:00,
2013-07-14 01:53:00,65.0,65.0,30.20,NW,322,0.0,4.0,100,0.03,,,0.10,,2013-07-14 05:53:00,
2013-07-14 02:01:00,65.0,65.0,30.20,East,82,1.0,5.0,100,0.05,,,0.14,,2013-07-14 06:01:00,
2013-07-14 02:11:00,65.0,65.0,30.20,SE,127,0.0,1.0,100,0.11,,,0.21,,2013-07-14 06:11:00,
2013-07-14 02:22:00,65.0,65.0,30.21,SE,141,0.0,7.0,100,0.21,,,0.31,,2013-07-14 06:22:00,
2013-07-14 02:32:00,65.0,65.0,30.21,ESE,113,0.0,4.0,100,0.22,,,0.32,,2013-07-14 06:32:00,
2013-07-14 02:42:00,65.0,65.0,30.21,South,170,0.0,3.0,100,0.24,,,0.34,,2013-07-14 06:42:00,
2013-07-14 02:53:00,65.0,65.0,30.20,SSW,194,0.0,3.0,100,0.26,,,0.36,,2013-07-14 06:53:00,
2013-07-14 03:02:00,65.0,65.0,30.20,ESE,102,0.0,1.0,100,0.23,,,0.37,,2013-07-14 07:02:00,
2013-07-14 03:12:00,65.0,65.0,30.20,ESE,103,0.0,1.0,100,0.18,,,0.39,,2013-07-14 07:12:00,
2013-07-14 03:22:00,65.0,65.0,30.19,SE,138,0.0,2.0,100,0.09,,,0.40,,2013-07-14 07:22:00,
2013-07-14 03:33:00,65.0,65.0,30.19,NE,44,0.0,3.0,100,0.26,,,0.58,,2013-07-14 07:33:00,
2013-07-14 03:43:00,65.0,65.0,30.19,SSE,153,0.0,2.0,100,0.34,,,0.68,,2013-07-14 07:43:00,
2013-07-14 03:53:00,65.0,65.0,30.19,SSW,198,3.0,11.0,100,0.39,,,0.75,,2013-07-14 07:53:00,
2013-07-14 04:01:00,65.0,65.0,30.19,South,187,2.0,11.0,100,0.43,,,0.80,,2013-07-14 08:01:00,
2013-07-14 04:11:00,65.0,65.0,30.20,SSW,206,3.0,15.0,100,0.41,,,0.80,,2013-07-14 08:11:00,
2013-07-14 04:22:00,65.0,65.0,30.20,SSW,197,3.0,12.0,100,0.40,,,0.80,,2013-07-14 08:22:00,
2013-07-14 04:32:00,65.0,65.0,30.20,SSE,167,2.0,11.0,100,0.23,,,0.82,,2013-07-14 08:32:00,
2013-07-14 04:42:00,65.0,65.0,30.21,SSW,199,0.0,10.0,100,0.14,,,0.82,,2013-07-14 08:42:00,
2013-07-14 04:53:00,65.0,65.0,30.22,SSW,205,2.0,13.0,100,0.06,,,0.82,,2013-07-14 08:53:00,
2013-07-14 05:01:00,65.0,65.0,30.22,East,91,5.0,14.0,100,0.02,,,0.82,,2013-07-14 09:01:00,
2013-07-14 05:11:00,65.0,65.0,30.22,SSW,200,3.0,15.0,100,0.06,,,0.86,,2013-07-14 09:11:00,
2013-07-14 05:22:00,65.0,65.0,30.22,SSW,200,3.0,15.0,100,0.06,,,0.86,,2013-07-14 09:22:00,
2013-07-14 05:32:00,65.0,65.0,30.22,South,185,2.0,9.0,100,0.05,,,0.87,,2013-07-14 09:32:00,
2013-07-14 05:42:00,65.0,65.0,30.23,SSW,194,1.0,12.0,100,0.05,,,0.87,,2013-07-14 09:42:00,
2013-07-14 05:52:00,65.0,65.0,30.23,South,184,0.0,7.0,100,0.07,,,0.89,,2013-07-14 09:52:00,
2013-07-14 06:01:00,65.0,65.0,30.23,South,181,1.0,6.0,100,0.07,,,0.89,,2013-07-14 10:01:00,
2013-07-14 06:12:00,64.0,64.0,30.23,SSW,192,1.0,7.0,100,0.16,,,1.02,,2013-07-14 10:12:00,
2013-07-14 06:22:00,64.0,64.0,30.24,SSE,155,4.0,10.0,100,0.31,,,1.18,,2013-07-14 10:22:00,
2013-07-14 06:32:00,64.0,64.0,30.24,South,182,3.0,10.0,100,0.41,,,1.28,,2013-07-14 10:32:00,
2013-07-14 06:42:00,64.0,64.0,30.25,SSW,205,2.0,10.0,100,0.44,,,1.31,,2013-07-14 10:42:00,
2013-07-14 06:53:00,64.0,64.0,30.25,SSW,205,3.0,14.0,100,0.42,,,1.31,,2013-07-14 10:53:00,
2013-07-14 07:02:00,65.0,65.0,30.25,SSW,198,6.0,14.0,100,0.42,,,1.31,,2013-07-14 11:02:00,
2013-07-14 07:11:00,65.0,65.0,30.26,SW,225,3.0,14.0,100,0.29,,,1.32,,2013-07-14 11:11:00,
2013-07-14 07:22:00,65.0,65.0,30.27,SSE,161,3.0,13.0,100,0.15,,,1.33,,2013-07-14 11:22:00,
2013-07-14 07:32:00,65.0,65.0,30.27,SE,136,1.0,7.0,100,0.06,,,1.34,,2013-07-14 11:32:00,
2013-07-14 07:43:00,65.0,65.0,30.27,SE,146,2.0,11.0,100,0.03,,,1.34,,2013-07-14 11:43:00,
2013-07-14 07:53:00,65.0,65.0,30.27,SSE,148,4.0,13.0,100,0.04,,,1.35,,2013-07-14 11:53:00,
2013-07-14 08:02:00,65.0,65.0,30.27,SSE,155,1.0,12.0,100,0.04,,,1.35,,2013-07-14 12:02:00,
2013-07-14 08:11:00,65.0,65.0,30.27,SSW,207,4.0,10.0,100,0.03,,,1.35,,2013-07-14 12:11:00,
2013-07-14 08:22:00,64.0,64.0,30.28,SSE,151,2.0,13.0,100,0.03,,,1.36,,2013-07-14 12:22:00,
2013-07-14 08:33:00,64.0,64.0,30.28,SSW,212,1.0,10.0,100,0.02,,,1.36,,2013-07-14 12:33:00,
2013-07-14 08:52:00,64.0,64.0,30.29,ESE,121,3.0,9.0,100,0.01,,,1.36,,2013-07-14 12:52:00,
2013-07-14 09:01:00,64.0,64.0,30.29,SSE,149,1.0,7.0,100,0.03,,,1.38,,2013-07-14 13:01:00,
2013-07-14 09:11:00,64.0,64.0,30.29,NE,53,2.0,8.0,100,0.07,,,1.42,,2013-07-14 13:11:00,
2013-07-14 09:22:00,64.0,64.0,30.29,SSE,148,1.0,7.0,100,0.08,,,1.44,,2013-07-14 13:22:00,
2013-07-14 09:32:00,64.0,64.0,30.29,SE,142,2.0,12.0,100,0.17,,,1.53,,2013-07-14 13:32:00,
2013-07-14 09:42:00,65.0,65.0,30.30,SSW,192,0.0,6.0,100,0.23,,,1.59,,2013-07-14 13:42:00,
2013-07-14 09:53:00,65.0,65.0,30.30,North,5,3.0,14.0,100,0.23,,,1.59,,2013-07-14 13:53:00,
2013-07-14 10:02:00,64.0,64.0,30.30,SSW,203,2.0,15.0,100,0.22,,,1.60,,2013-07-14 14:02:00,
2013-07-14 10:11:00,64.0,64.0,30.30,SSE,168,1.0,11.0,100,0.21,,,1.63,,2013-07-14 14:11:00,
2013-07-14 10:23:00,64.0,64.0,30.30,SSE,151,3.0,13.0,100,0.27,,,1.70,,2013-07-14 14:23:00,
2013-07-14 10:33:00,64.0,64.0,30.30,ESE,112,5.0,17.0,100,0.19,,,1.72,,2013-07-14 14:33:00,
2013-07-14 10:43:00,64.0,64.0,30.31,SE,139,4.0,16.0,100,0.16,,,1.74,,2013-07-14 14:43:00,
2013-07-14 10:53:00,64.0,64.0,30.32,SSW,197,9.0,23.0,100,0.16,,,1.75,,2013-07-14 14:53:00,
2013-07-14 11:01:00,64.0,64.0,30.32,WSW,255,2.0,17.0,100,0.17,,,1.76,,2013-07-14 15:01:00,
2013-07-14 11:12:00,64.0,64.0,30.32,SSW,200,3.0,17.0,100,0.13,,,1.76,,2013-07-14 15:12:00,
2013-07-14 11:22:00,64.0,64.0,30.32,SSW,207,5.0,12.0,100,0.06,,,1.75,,2013-07-14 15:22:00,
2013-07-14 11:32:00,64.0,64.0,30.32,South,180,3.0,14.0,100,0.04,,,1.75,,2013-07-14 15:32:00,
2013-07-14 11:42:00,64.0,64.0,30.34,South,175,3.0,15.0,100,0.02,,,1.75,,2013-07-14 15:42:00,
2013-07-14 11:53:00,64.0,64.0,30.34,South,173,1.0,10.0,100,0.01,,,1.75,,2013-07-14 15:53:00,
2013-07-14 12:01:00,64.0,64.0,30.34,ESE,113,3.0,16.0,100,0.00,,,1.75,,2013-07-14 16:01:00,
2013-07-14 12:11:00,64.0,64.0,30.34,ESE,102,4.0,9.0,100,0.00,,,1.75,,2013-07-14 16:11:00,
2013-07-14 12:22:00,64.0,64.0,30.33,SSW,192,3.0,13.0,100,0.00,,,1.72,,2013-07-14 16:22:00,
2013-07-14 12:32:00,64.0,64.0,30.33,South,182,2.0,17.0,100,0.00,,,1.72,,2013-07-14 16:32:00,
2013-07-14 12:43:00,64.0,64.0,30.34,NW,305,1.0,11.0,100,0.00,,,1.72,,2013-07-14 16:43:00,
2013-07-14 12:53:00,65.0,65.0,30.34,SE,126,1.0,10.0,100,0.05,,,1.77,,2013-07-14 16:53:00,
2013-07-14 13:02:00,65.0,65.0,30.34,South,180,3.0,19.0,100,0.11,,,1.83,,2013-07-14 17:02:00,
2013-07-14 13:11:00,65.0,65.0,30.33,ESE,104,3.0,17.0,100,0.13,,,1.85,,2013-07-14 17:11:00,
2013-07-14 13:22:00,65.0,65.0,30.35,South,171,3.0,12.0,100,0.24,,,1.95,,2013-07-14 17:22:00,
2013-07-14 13:32:00,64.0,64.0,30.35,South,183,6.0,19.0,100,0.26,,,1.97,,2013-07-14 17:32:00,
2013-07-14 13:43:00,64.0,64.0,30.35,East,92,6.0,19.0,100,0.27,,,1.98,,2013-07-14 17:43:00,
2013-07-14 13:53:00,65.0,65.0,30.35,South,171,2.0,11.0,100,0.22,,,1.98,,2013-07-14 17:53:00,
2013-07-14 14:01:00,65.0,65.0,30.35,SSE,161,2.0,10.0,100,0.17,,,1.99,,2013-07-14 18:01:00,
2013-07-14 14:11:00,64.0,64.0,30.34,South,171,5.0,15.0,100,0.15,,,2.00,,2013-07-14 18:11:00,
2013-07-14 14:22:00,64.0,64.0,30.35,SSE,167,1.0,13.0,100,0.06,,,2.01,,2013-07-14 18:22:00,
2013-07-14 14:32:00,65.0,65.0,30.35,South,186,2.0,11.0,100,0.04,,,2.01,,2013-07-14 18:32:00,
2013-07-14 14:42:00,65.0,65.0,30.35,SSE,148,1.0,12.0,100,0.03,,,2.01,,2013-07-14 18:42:00,
2013-07-14 14:52:00,65.0,65.0,30.35,SE,131,1.0,11.0,100,0.03,,,2.01,,2013-07-14 18:52:00,
2013-07-14 15:01:00,65.0,65.0,30.35,ESE,105,1.0,7.0,100,0.02,,,2.01,,2013-07-14 19:01:00,
2013-07-14 15:12:00,65.0,65.0,30.34,ESE,117,2.0,9.0,100,0.01,,,2.01,,2013-07-14 19:12:00,
2013-07-14 15:22:00,65.0,65.0,30.35,SSW,205,1.0,14.0,100,0.08,,,2.09,,2013-07-14 19:22:00,
2013-07-14 15:32:00,64.0,64.0,30.35,South,187,3.0,14.0,100,0.22,,,2.23,,2013-07-14 19:32:00,
2013-07-14 15:43:00,64.0,64.0,30.34,SSE,151,1.0,9.0,100,0.26,,,2.27,,2013-07-14 19:43:00,
2013-07-14 15:53:00,64.0,64.0,30.34,South,189,1.0,7.0,100,0.26,,,2.27,,2013-07-14 19:53:00,
2013-07-14 16:02:00,65.0,65.0,30.34,East,90,1.0,10.0,100,0.31,,,2.32,,2013-07-14 20:02:00,
2013-07-14 16:11:00,65.0,65.0,30.33,SW,229,0.0,7.0,100,0.30,,,2.32,,2013-07-14 20:11:00,
2013-07-14 16:22:00,66.0,66.0,30.34,NW,304,1.0,8.0,100,0.23,,,2.32,,2013-07-14 20:22:00,
2013-07-14 16:32:00,67.0,67.0,30.34,SSE,164,1.0,8.0,100,0.08,,,2.32,,2013-07-14 20:32:00,
2013-07-14 16:43:00,67.0,67.0,30.34,ESE,117,1.0,11.0,100,0.05,,,2.32,,2013-07-14 20:43:00,
2013-07-14 16:53:00,67.0,67.0,30.33,SSW,199,3.0,7.0,100,0.11,,,2.39,,2013-07-14 20:53:00,
2013-07-14 17:02:00,65.0,65.0,30.33,SSW,200,4.0,17.0,100,0.28,,,2.60,,2013-07-14 21:02:00,
2013-07-14 17:11:00,64.0,64.0,30.34,SSW,205,0.0,11.0,100,0.34,,,2.66,,2013-07-14 21:11:00,
2013-07-14 17:22:00,63.0,63.0,30.34,SSE,163,0.0,13.0,100,0.38,,,2.70,,2013-07-14 21:22:00,
2013-07-14 17:32:00,63.0,63.0,30.34,South,183,2.0,17.0,100,0.40,,,2.72,,2013-07-14 21:32:00,
2013-07-14 17:43:00,63.0,63.0,30.34,SW,230,1.0,17.0,100,0.40,,,2.72,,2013-07-14 21:43:00,
2013-07-14 17:52:00,63.0,63.0,30.34,SE,136,2.0,10.0,100,0.30,,,2.72,,2013-07-14 21:52:00,
2013-07-14 18:01:00,63.0,63.0,30.34,SE,128,1.0,14.0,100,0.12,,,2.72,,2013-07-14 22:01:00,
2013-07-14 18:11:00,63.0,63.0,30.34,SE,130,1.0,7.0,100,0.06,,,2.72,,2013-07-14 22:11:00,
2013-07-14 18:22:00,63.0,63.0,30.34,SE,137,0.0,6.0,100,0.02,,,2.72,,2013-07-14 22:22:00,
2013-07-14 18:32:00,64.0,64.0,30.34,SE,142,2.0,6.0,100,0.00,,,2.72,,2013-07-14 22:32:00,
2013-07-14 18:42:00,65.0,65.0,30.33,SSE,163,2.0,9.0,100,0.00,,,2.72,,2013-07-14 22:42:00,
2013-07-14 18:53:00,65.0,65.0,30.34,SSE,167,1.0,8.0,100,0.00,,,2.72,,2013-07-14 22:53:00,
2013-07-14 19:01:00,65.0,65.0,30.34,ENE,78,0.0,1.0,100,0.00,,,2.72,,2013-07-14 23:01:00,
2013-07-14 19:11:00,65.0,65.0,30.34,ESE,103,0.0,6.0,100,0.00,,,2.72,,2013-07-14 23:11:00,
2013-07-14 19:22:00,64.0,64.0,30.33,NE,34,0.0,9.0,100,0.00,,,2.72,,2013-07-14 23:22:00,
2013-07-14 19:32:00,64.0,64.0,30.33,North,9,0.0,4.0,100,0.00,,,2.72,,2013-07-14 23:32:00,
2013-07-14 19:42:00,64.0,64.0,30.34,NNW,337,0.0,4.0,100,0.00,,,2.72,,2013-07-14 23:42:00,
2013-07-14 19:53:00,65.0,65.0,30.35,SSE,148,1.0,8.0,100,0.00,,,2.72,,2013-07-14 23:53:00,
2013-07-14 20:02:00,64.0,64.0,30.35,NW,317,0.0,4.0,100,0.00,,,2.72,,2013-07-15 00:02:00,
2013-07-14 20:11:00,64.0,64.0,30.36,SSE,153,1.0,7.0,100,0.00,,,2.72,,2013-07-15 00:11:00,
2013-07-14 20:22:00,64.0,64.0,30.36,SSE,158,0.0,3.0,100,0.00,,,2.72,,2013-07-15 00:22:00,
2013-07-14 20:32:00,64.0,64.0,30.36,SE,136,0.0,7.0,100,0.00,,,2.72,,2013-07-15 00:32:00,
2013-07-14 20:43:00,65.0,65.0,30.36,SSE,150,0.0,4.0,100,0.00,,,2.72,,2013-07-15 00:43:00,
2013-07-14 20:53:00,65.0,65.0,30.36,SSE,165,0.0,4.0,100,0.00,,,2.72,,2013-07-15 00:53:00,
2013-07-14 21:01:00,64.0,64.0,30.36,South,170,1.0,5.0,100,0.00,,,2.72,,2013-07-15 01:01:00,
2013-07-14 21:11:00,64.0,64.0,30.35,SSE,160,1.0,5.0,100,0.00,,,2.72,,2013-07-15 01:11:00,
2013-07-14 21:22:00,65.0,65.0,30.36,SSE,153,0.0,5.0,100,0.00,,,2.72,,2013-07-15 01:22:00,
2013-07-14 21:32:00,65.0,65.0,30.36,SE,134,1.0,6.0,100,0.00,,,2.72,,2013-07-15 01:32:00,
2013-07-14 21:43:00,65.0,65.0,30.36,South,171,1.0,9.0,100,0.00,,,2.72,,2013-07-15 01:43:00,
2013-07-14 21:53:00,65.0,65.0,30.37,SSE,161,2.0,8.0,100,0.00,,,2.72,,2013-07-15 01:53:00,
2013-07-14 22:02:00,65.0,65.0,30.37,SSE,154,2.0,7.0,100,0.00,,,2.72,,2013-07-15 02:02:00,
2013-07-14 22:11:00,65.0,65.0,30.37,SE,145,1.0,8.0,100,0.00,,,2.72,,2013-07-15 02:11:00,
2013-07-14 22:22:00,66.0,66.0,30.37,SE,144,0.0,6.0,100,0.00,,,2.72,,2013-07-15 02:22:00,
2013-07-14 22:32:00,66.0,66.0,30.37,SSE,152,1.0,5.0,100,0.00,,,2.72,,2013-07-15 02:32:00,
2013-07-14 22:42:00,66.0,66.0,30.38,South,189,0.0,6.0,100,0.00,,,2.72,,2013-07-15 02:42:00,
2013-07-14 22:53:00,65.0,65.0,30.37,ENE,70,0.0,9.0,100,0.00,,,2.72,,2013-07-15 02:53:00,
2013-07-14 23:02:00,65.0,65.0,30.37,NW,319,0.0,9.0,100,0.00,,,2.72,,2013-07-15 03:02:00,
2013-07-14 23:11:00,65.0,65.0,30.37,North,5,0.0,6.0,100,0.00,,,2.72,,2013-07-15 03:11:00,
2013-07-14 23:22:00,64.0,64.0,30.38,SE,136,1.0,9.0,100,0.04,,,2.76,,2013-07-15 03:22:00,
2013-07-14 23:32:00,64.0,64.0,30.38,SSE,155,0.0,11.0,100,0.05,,,2.77,,2013-07-15 03:32:00,
2013-07-14 23:43:00,64.0,64.0,30.38,SSE,147,0.0,8.0,100,0.05,,,2.77,,2013-07-15 03:43:00,
2013-07-14 23:53:00,64.0,64.0,30.38,ESE,120,2.0,11.0,100,0.05,,,2.77,,2013-07-15 03:53:00,